DLH719 RKSI-EDDM

Flight info

Callsign DLH719
Flight time N/A
Altitude 34100
Route BINIL3H BINIL Y697 AGAVO A591 IKEKA W4 HCH W200 DOVIV W55 PAMRU W34 VYK B215 LEBOM W104 OMDIS/K0920S1100 W104 VEXEB W47 IDSOT W48 DKO W66 NUKTI B215 FKG A368 SARIN/K0891F380 N161 GASBI/N0490F380 N161 ABTEK/N0493F400 N161 LEYLA T916 MATAL DCT TABAS DCT REBLO UM11 CRM UL746 ODERO L746 LUGEB DCT MOPUG DCT SUNIS DCT AMADI Q113 NAPSA NAPSA1B
Aircraft A359/H-SADE2E3GHIJ1J2J3J4J5M1P2RWXYZ/LB1D1

Departure

Time N/A
Airport Incheon International Airport (RKSI)

Arrival

Time 2026-05-07 07:45
Airport Munich Airport (EDDM)
Time Latitude Longitude Altitude Speed Heading
2026-05-07 06:38 45.89737 21.69076 40016 ft 459 kts 289°
2026-05-07 06:39 45.92087 21.60567 40015 ft 458 kts 289°
2026-05-07 06:39 45.94430 21.52050 40038 ft 458 kts 289°
2026-05-07 06:40 45.96765 21.43530 40055 ft 459 kts 289°
2026-05-07 06:40 45.99101 21.34979 40034 ft 460 kts 289°
2026-05-07 06:41 46.01436 21.26407 40016 ft 460 kts 289°
2026-05-07 06:41 46.03747 21.17889 40017 ft 460 kts 289°
2026-05-07 06:42 46.06067 21.09306 40016 ft 460 kts 289°
2026-05-07 06:42 46.08378 21.00729 40014 ft 459 kts 288°
2026-05-07 06:43 46.10677 20.92164 40009 ft 458 kts 288°
2026-05-07 06:43 46.12967 20.83594 40004 ft 458 kts 288°
2026-05-07 06:44 46.15249 20.75026 40003 ft 458 kts 288°
2026-05-07 06:44 46.17507 20.66445 40001 ft 457 kts 287°
2026-05-07 06:45 46.19635 20.57800 39998 ft 457 kts 286°
2026-05-07 06:45 46.21728 20.49147 39999 ft 457 kts 286°
2026-05-07 06:46 46.23832 20.40492 39998 ft 457 kts 286°
2026-05-07 06:46 46.25941 20.31840 39995 ft 456 kts 286°
2026-05-07 06:47 46.28045 20.23189 39988 ft 456 kts 286°
2026-05-07 06:47 46.30142 20.14529 39990 ft 456 kts 286°
2026-05-07 06:48 46.32231 20.05868 39988 ft 456 kts 285°
2026-05-07 06:48 46.34313 19.97201 39992 ft 456 kts 285°
2026-05-07 06:49 46.36376 19.88580 39985 ft 456 kts 285°
2026-05-07 06:49 46.38445 19.79900 39987 ft 456 kts 285°
2026-05-07 06:50 46.40506 19.71217 39985 ft 456 kts 285°
2026-05-07 06:50 46.42560 19.62534 39984 ft 456 kts 285°
2026-05-07 06:51 46.44435 19.54571 39978 ft 457 kts 285°
2026-05-07 06:51 46.46486 19.45831 39972 ft 457 kts 285°
2026-05-07 06:52 46.48529 19.37093 39970 ft 457 kts 285°
2026-05-07 06:52 46.50566 19.28347 39985 ft 457 kts 285°
2026-05-07 06:53 46.52598 19.19580 39968 ft 459 kts 285°
2026-05-07 06:53 46.54629 19.10786 39968 ft 460 kts 285°
2026-05-07 06:54 46.56656 19.01975 39963 ft 460 kts 284°
2026-05-07 06:54 46.58674 18.93165 39959 ft 460 kts 284°
2026-05-07 06:55 46.60687 18.84342 39964 ft 460 kts 284°
2026-05-07 06:55 46.62696 18.75498 39960 ft 461 kts 284°
2026-05-07 06:56 46.64699 18.66644 39958 ft 460 kts 284°
2026-05-07 06:56 46.66682 18.57846 39957 ft 461 kts 284°
2026-05-07 06:57 46.68669 18.48988 39961 ft 460 kts 284°
2026-05-07 06:57 46.70648 18.40135 39955 ft 460 kts 284°
2026-05-07 06:58 46.72619 18.31274 39954 ft 459 kts 284°
2026-05-07 06:58 46.74581 18.22418 39956 ft 459 kts 284°
2026-05-07 06:59 46.76539 18.13544 39960 ft 459 kts 284°
2026-05-07 06:59 46.78477 18.04728 39959 ft 456 kts 284°
2026-05-07 07:00 46.80412 17.95886 39946 ft 457 kts 283°
2026-05-07 07:00 46.82334 17.87059 39948 ft 457 kts 283°
2026-05-07 07:01 46.84253 17.78211 39955 ft 457 kts 283°
2026-05-07 07:01 46.86170 17.69334 39942 ft 459 kts 283°
2026-05-07 07:02 46.88085 17.60430 39939 ft 459 kts 283°
2026-05-07 07:02 46.89993 17.51527 39940 ft 459 kts 283°
2026-05-07 07:03 46.91892 17.42619 39953 ft 459 kts 283°
2026-05-07 07:03 46.93789 17.33683 39948 ft 461 kts 283°
2026-05-07 07:04 46.95685 17.24708 39944 ft 462 kts 283°
2026-05-07 07:04 46.97576 17.15724 39944 ft 462 kts 283°
2026-05-07 07:05 46.99460 17.06733 39942 ft 462 kts 283°
2026-05-07 07:05 47.01335 16.97746 39937 ft 461 kts 283°
2026-05-07 07:06 47.03201 16.88754 39939 ft 461 kts 283°
2026-05-07 07:06 47.05047 16.79825 39939 ft 461 kts 283°
2026-05-07 07:07 47.06899 16.70823 39936 ft 461 kts 283°
2026-05-07 07:07 47.08743 16.61826 39942 ft 460 kts 282°
2026-05-07 07:08 47.10573 16.52860 39939 ft 458 kts 282°
2026-05-07 07:08 47.12391 16.43905 39938 ft 457 kts 282°
2026-05-07 07:09 47.14288 16.34982 39938 ft 460 kts 288°
2026-05-07 07:09 47.16739 16.26275 39936 ft 462 kts 288°
2026-05-07 07:10 47.19294 16.17617 39939 ft 462 kts 289°
2026-05-07 07:10 47.21859 16.08961 39940 ft 462 kts 289°
2026-05-07 07:11 47.24410 16.00283 39936 ft 462 kts 289°
2026-05-07 07:11 47.26945 15.91600 39961 ft 462 kts 288°
2026-05-07 07:12 47.29049 15.84363 39940 ft 464 kts 288°
2026-05-07 07:12 47.31585 15.75614 39938 ft 465 kts 288°
2026-05-07 07:13 47.34119 15.66842 39936 ft 465 kts 288°
2026-05-07 07:13 47.36646 15.58067 39940 ft 465 kts 288°
2026-05-07 07:14 47.39168 15.49278 39945 ft 467 kts 288°
2026-05-07 07:14 47.41703 15.40401 39946 ft 470 kts 288°
2026-05-07 07:15 47.44239 15.31494 39945 ft 470 kts 288°
2026-05-07 07:15 47.46768 15.22581 39954 ft 470 kts 288°
2026-05-07 07:16 47.49290 15.13653 39960 ft 471 kts 288°
2026-05-07 07:16 47.51807 15.04711 39950 ft 472 kts 288°
2026-05-07 07:17 47.54327 14.95736 39960 ft 472 kts 288°
2026-05-07 07:17 47.56840 14.86747 39963 ft 472 kts 288°
2026-05-07 07:18 47.59341 14.77764 39966 ft 472 kts 288°
2026-05-07 07:18 47.61831 14.68791 39970 ft 470 kts 288°
2026-05-07 07:19 47.64309 14.59824 39976 ft 470 kts 288°
2026-05-07 07:19 47.66768 14.50902 39550 ft 464 kts 288°
2026-05-07 07:20 47.67986 14.46469 38894 ft 464 kts 287°
2026-05-07 07:20 47.69201 14.42029 38141 ft 465 kts 287°
2026-05-07 07:20 47.70419 14.37572 37354 ft 467 kts 286°
2026-05-07 07:20 47.71637 14.33109 36639 ft 467 kts 286°
2026-05-07 07:21 47.72839 14.28702 35974 ft 466 kts 285°
2026-05-07 07:21 47.74053 14.24245 35252 ft 465 kts 285°
2026-05-07 07:21 47.75264 14.19799 34548 ft 464 kts 284°
2026-05-07 07:21 47.76468 14.15366 34067 ft 460 kts 284°
2026-05-07 07:22 47.77656 14.10990 33641 ft 454 kts 283°
2026-05-07 07:22 47.78825 14.06660 33069 ft 449 kts 283°
2026-05-07 07:22 47.79982 14.02359 32512 ft 446 kts 284°
2026-05-07 07:22 47.81132 13.98073 31880 ft 446 kts 283°
2026-05-07 07:23 47.82274 13.93808 31324 ft 443 kts 283°
2026-05-07 07:23 47.83410 13.89566 30795 ft 440 kts 283°
2026-05-07 07:23 47.84537 13.85358 30258 ft 437 kts 283°
2026-05-07 07:23 47.85658 13.81166 29701 ft 434 kts 283°
2026-05-07 07:24 47.86766 13.77011 29139 ft 430 kts 283°
2026-05-07 07:24 47.87861 13.72894 28618 ft 426 kts 283°
2026-05-07 07:24 47.88946 13.68809 28078 ft 422 kts 283°
2026-05-07 07:24 47.90018 13.64758 27586 ft 418 kts 283°
2026-05-07 07:25 47.92131 13.56750 26558 ft 412 kts 284°
2026-05-07 07:25 47.93176 13.52784 26040 ft 409 kts 284°
2026-05-07 07:25 47.94212 13.48854 25570 ft 405 kts 284°
2026-05-07 07:26 47.95236 13.44959 25083 ft 402 kts 284°
2026-05-07 07:26 47.96253 13.41084 24600 ft 399 kts 284°
2026-05-07 07:26 47.97259 13.37246 24120 ft 396 kts 284°
2026-05-07 07:26 47.98256 13.33433 23653 ft 393 kts 284°
2026-05-07 07:27 47.99244 13.29648 23118 ft 390 kts 284°
2026-05-07 07:27 48.00221 13.25893 22594 ft 387 kts 285°
2026-05-07 07:27 48.01190 13.22168 22080 ft 383 kts 286°
2026-05-07 07:27 48.02149 13.18477 21519 ft 380 kts 286°
2026-05-07 07:28 48.03097 13.14816 20995 ft 377 kts 286°
2026-05-07 07:28 48.04039 13.11179 20451 ft 374 kts 287°
2026-05-07 07:28 48.04972 13.07567 19956 ft 371 kts 287°
2026-05-07 07:28 48.05897 13.03981 19447 ft 369 kts 287°
2026-05-07 07:29 48.06815 13.00421 18948 ft 366 kts 287°
2026-05-07 07:29 48.07713 12.96931 18477 ft 363 kts 287°
2026-05-07 07:29 48.08610 12.93364 17915 ft 360 kts 285°
2026-05-07 07:29 48.09185 12.89752 17375 ft 355 kts 277°
2026-05-07 07:30 48.09584 12.86177 16824 ft 352 kts 276°
2026-05-07 07:30 48.09951 12.82548 16203 ft 352 kts 276°
2026-05-07 07:30 48.10304 12.78943 15733 ft 348 kts 276°
2026-05-07 07:30 48.10646 12.75380 15278 ft 344 kts 276°
2026-05-07 07:31 48.10981 12.71855 14791 ft 341 kts 276°
2026-05-07 07:31 48.11310 12.68359 14319 ft 337 kts 276°
2026-05-07 07:31 48.11633 12.64905 13849 ft 334 kts 276°
2026-05-07 07:31 48.11952 12.61481 13321 ft 331 kts 276°
2026-05-07 07:32 48.12267 12.58087 12782 ft 328 kts 276°
2026-05-07 07:32 48.12578 12.54719 12260 ft 325 kts 276°
2026-05-07 07:32 48.12882 12.51426 11868 ft 312 kts 276°
2026-05-07 07:32 48.13170 12.48310 11555 ft 293 kts 276°
2026-05-07 07:33 48.13440 12.45359 11101 ft 281 kts 275°
2026-05-07 07:33 48.13669 12.42477 10584 ft 278 kts 274°
2026-05-07 07:33 48.13885 12.39627 10262 ft 274 kts 274°
2026-05-07 07:33 48.14097 12.36810 9885 ft 271 kts 274°
2026-05-07 07:34 48.14305 12.34020 9474 ft 268 kts 274°
2026-05-07 07:34 48.14508 12.31261 9086 ft 265 kts 274°
2026-05-07 07:34 48.14711 12.28529 8666 ft 263 kts 274°
2026-05-07 07:34 48.14984 12.25836 8261 ft 262 kts 283°
2026-05-07 07:35 48.15902 12.23487 7852 ft 266 kts 310°
2026-05-07 07:35 48.17479 12.22016 7472 ft 273 kts 338°
2026-05-07 07:35 48.19349 12.21608 7289 ft 269 kts 352°
2026-05-07 07:35 48.21191 12.21556 7148 ft 260 kts 354°
2026-05-07 07:36 48.22962 12.21559 7027 ft 250 kts 354°
2026-05-07 07:36 48.24666 12.21571 6879 ft 240 kts 354°
2026-05-07 07:36 48.26299 12.21599 6766 ft 230 kts 354°
2026-05-07 07:36 48.27878 12.21652 6530 ft 225 kts 354°
2026-05-07 07:37 48.29423 12.21718 6246 ft 220 kts 354°
2026-05-07 07:37 48.30917 12.21666 5980 ft 209 kts 342°
2026-05-07 07:37 48.32294 12.21137 5654 ft 201 kts 335°
2026-05-07 07:37 48.33617 12.20497 5317 ft 199 kts 334°
2026-05-07 07:38 48.34923 12.19839 5030 ft 197 kts 334°
2026-05-07 07:38 48.36137 12.18932 4973 ft 193 kts 318°
2026-05-07 07:38 48.36832 12.17315 4985 ft 183 kts 285°
2026-05-07 07:38 48.37064 12.15468 4987 ft 179 kts 272°
2026-05-07 07:39 48.37023 12.13627 4979 ft 174 kts 264°
2026-05-07 07:39 48.36892 12.11843 4985 ft 173 kts 263°
2026-05-07 07:39 48.36751 12.10045 4983 ft 173 kts 263°
2026-05-07 07:39 48.36610 12.08239 4981 ft 174 kts 263°
2026-05-07 07:40 48.36469 12.06433 4953 ft 173 kts 263°
2026-05-07 07:40 48.36331 12.04652 4767 ft 170 kts 263°
2026-05-07 07:40 48.36198 12.02901 4517 ft 167 kts 263°
2026-05-07 07:40 48.36067 12.01179 4265 ft 164 kts 262°
2026-05-07 07:41 48.35938 11.99493 4035 ft 161 kts 262°
2026-05-07 07:41 48.35811 11.97850 3822 ft 156 kts 262°
2026-05-07 07:41 48.35689 11.96254 3612 ft 152 kts 262°
2026-05-07 07:41 48.35569 11.94701 3417 ft 148 kts 263°
2026-05-07 07:42 48.35453 11.93188 3217 ft 143 kts 262°
2026-05-07 07:42 48.35344 11.91759 3030 ft 133 kts 262°
2026-05-07 07:42 48.35240 11.90423 2847 ft 125 kts 263°
2026-05-07 07:42 48.35142 11.89133 2693 ft 124 kts 263°
2026-05-07 07:43 48.35044 11.87852 2513 ft 124 kts 263°
2026-05-07 07:43 48.34952 11.86542 2329 ft 128 kts 264°
2026-05-07 07:43 48.34854 11.85224 2164 ft 126 kts 262°
2026-05-07 07:43 48.34735 11.83893 1998 ft 132 kts 262°
2026-05-07 07:44 48.34627 11.82489 1793 ft 138 kts 264°
2026-05-07 07:44 48.34530 11.81082 1612 ft 132 kts 262°
2026-05-07 07:44 48.34424 11.79729 1496 ft 127 kts 263°
2026-05-07 07:44 48.34336 11.78585 1480 ft 89 kts 263°
2026-05-07 07:45 48.34283 11.77901 1492 ft 44 kts 263°
2026-05-07 07:45 48.34255 11.77532 1484 ft 29 kts 263°
2026-05-07 07:45 48.34263 11.77266 1478 ft 24 kts 285°
2026-05-07 07:45 48.34321 11.77039 1476 ft 23 kts 293°
2026-05-07 07:46 48.34374 11.76855 1476 ft 16 kts 293°
2026-05-07 07:46 48.34430 11.76748 1484 ft 11 kts 356°
2026-05-07 07:46 48.34473 11.76832 1484 ft 12 kts 81°
2026-05-07 07:46 48.34483 11.76968 1482 ft 14 kts 82°
2026-05-07 07:47 48.34497 11.77131 1476 ft 17 kts 83°
2026-05-07 07:47 48.34511 11.77324 1481 ft 20 kts 83°
2026-05-07 07:47 48.34528 11.77544 1492 ft 23 kts 83°
2026-05-07 07:47 48.34547 11.77791 1476 ft 25 kts 83°
2026-05-07 07:48 48.34567 11.78046 1483 ft 24 kts 83°
2026-05-07 07:48 48.34584 11.78275 1482 ft 20 kts 83°
2026-05-07 07:48 48.34601 11.78494 1488 ft 22 kts 84°
2026-05-07 07:48 48.34617 11.78703 1484 ft 20 kts 83°
2026-05-07 07:49 48.34634 11.78929 1484 ft 23 kts 83°
2026-05-07 07:49 48.34653 11.79179 1479 ft 25 kts 83°
2026-05-07 07:49 48.34672 11.79430 1483 ft 16 kts 83°
2026-05-07 07:49 48.34688 11.79531 1481 ft 8 kts 51°
2026-05-07 07:50 48.34738 11.79548 1488 ft 8 kts
2026-05-07 07:50 48.34801 11.79558 1481 ft 10 kts
2026-05-07 07:50 48.34868 11.79555 1479 ft 10 kts 354°
2026-05-07 07:50 48.34936 11.79544 1479 ft 11 kts 353°
2026-05-07 07:51 48.35015 11.79530 1484 ft 13 kts 353°
2026-05-07 07:51 48.35112 11.79514 1487 ft 15 kts 353°
2026-05-07 07:51 48.35216 11.79496 1484 ft 15 kts 353°
2026-05-07 07:51 48.35301 11.79477 1476 ft 7 kts 339°
2026-05-07 07:52 48.35312 11.79452 1476 ft 1 kts 291°
2026-05-07 07:52 48.35312 11.79448 1476 ft 1 kts 288°
2026-05-07 07:52 48.35313 11.79434 1478 ft 2 kts 272°
2026-05-07 07:52 48.35311 11.79402 1480 ft 6 kts 265°
2026-05-07 07:53 48.35306 11.79341 1480 ft 2 kts 263°
2026-05-07 07:53 48.35306 11.79338 1479 ft 1 kts 263°
2026-05-07 07:53 48.35305 11.79328 1488 ft 0 kts 263°
2026-05-07 07:53 48.35305 11.79327 1488 ft 0 kts 263°